Location: Zilina
(49.2170°N, 18.7330°E)
Time: 16:00:06
(UTC+02:00)

ISS - Pass Details

Date: 25 April 2024
Orbit: 410 x 414 km, 51.6° (Epoch: 21 May)

Event Time Altitude Azimuth Distance (km) Brightness Sun altitude
Exits shadow 04:40:43 12° 227° (SW) 1,377 -1.8 -8.6°
Maximum altitude 04:43:41 50° 152° (SSE) 528 -3.3 -8.2°
Drops below altitude 10° 04:47:01 - 75° (ENE) 1,520 0.6 -7.7°
Sets 04:49:02 0° 71° (ENE) 2,341 2.1 -7.4°
